Time,TemperatureF,DewpointF,PressureIn,WindDirection,WindDirectionDegrees,WindSpeedMPH,WindSpeedGustMPH,Humidity,HourlyPrecipIn,Conditions,Clouds,dailyrainin,SolarRadiationWatts/m^2,SoftwareType,DateUTC
2013-02-06 00:01:00,58.0,28.0,-100.00,North,8,1.0,3.0,32,-99.99,,,-99.99,0.000000,,2013-02-06 08:01:00,
2013-02-06 00:21:00,58.0,28.0,-100.00,West,279,0.0,2.0,32,-99.99,,,-99.99,0.000000,,2013-02-06 08:21:00,
2013-02-06 00:31:00,58.0,29.0,-100.00,NNE,27,0.0,1.0,33,-99.99,,,-99.99,0.000000,,2013-02-06 08:31:00,
2013-02-06 00:41:00,57.0,30.0,-100.00,ENE,76,0.0,1.0,35,-99.99,,,-99.99,0.000000,,2013-02-06 08:41:00,
2013-02-06 00:53:00,57.0,29.0,-100.00,NNW,339,0.0,1.0,34,-99.99,,,-99.99,0.000000,,2013-02-06 08:53:00,
2013-02-06 01:01:00,57.0,29.0,-100.00,NNW,339,0.0,1.0,34,-99.99,,,-99.99,0.000000,,2013-02-06 09:01:00,
2013-02-06 01:11:00,56.0,28.0,-100.00,North,349,1.0,2.0,34,-99.99,,,-99.99,0.000000,,2013-02-06 09:11:00,
2013-02-06 01:21:00,56.0,28.0,-100.00,North,349,1.0,2.0,34,-99.99,,,-99.99,0.000000,,2013-02-06 09:21:00,
2013-02-06 01:31:00,57.0,29.0,-100.00,NNW,342,1.0,3.0,34,-99.99,,,-99.99,0.000000,,2013-02-06 09:31:00,
2013-02-06 01:41:00,57.0,29.0,-100.00,NNW,346,1.0,3.0,34,-99.99,,,-99.99,0.000000,,2013-02-06 09:41:00,
2013-02-06 01:51:00,57.0,29.0,-100.00,North,349,2.0,3.0,35,-99.99,,,-99.99,0.000000,,2013-02-06 09:51:00,
2013-02-06 02:01:00,56.0,29.0,-100.00,NNE,15,1.0,2.0,35,-99.99,,,-99.99,0.000000,,2013-02-06 10:01:00,
2013-02-06 02:11:00,56.0,29.0,-100.00,NNE,16,1.0,3.0,36,-99.99,,,-99.99,0.000000,,2013-02-06 10:11:00,
2013-02-06 02:21:00,56.0,30.0,-100.00,North,4,1.0,2.0,37,-99.99,,,-99.99,0.000000,,2013-02-06 10:21:00,
2013-02-06 02:31:00,55.0,30.0,-100.00,North,350,1.0,2.0,37,-99.99,,,-99.99,0.000000,,2013-02-06 10:31:00,
2013-02-06 02:41:00,55.0,29.0,-100.00,NW,326,0.0,1.0,37,-99.99,,,-99.99,0.000000,,2013-02-06 10:41:00,
2013-02-06 02:51:00,55.0,29.0,-100.00,West,279,0.0,1.0,37,-99.99,,,-99.99,0.000000,,2013-02-06 10:51:00,
2013-02-06 03:01:00,55.0,30.0,-100.00,SW,223,0.0,2.0,38,-99.99,,,-99.99,0.000000,,2013-02-06 11:01:00,
2013-02-06 03:11:00,56.0,30.0,-100.00,SSW,213,1.0,2.0,37,-99.99,,,-99.99,0.000000,,2013-02-06 11:11:00,
2013-02-06 03:22:00,55.0,30.0,-100.00,SSW,209,0.0,1.0,38,-99.99,,,-99.99,0.000000,,2013-02-06 11:22:00,
2013-02-06 03:32:00,55.0,30.0,-100.00,SSW,209,0.0,1.0,38,-99.99,,,-99.99,0.000000,,2013-02-06 11:32:00,
2013-02-06 03:42:00,55.0,30.0,-100.00,North,7,0.0,2.0,39,-99.99,,,-99.99,0.000000,,2013-02-06 11:42:00,
2013-02-06 03:52:00,54.0,30.0,-100.00,West,274,0.0,1.0,40,-99.99,,,-99.99,0.000000,,2013-02-06 11:52:00,
2013-02-06 04:01:00,54.0,31.0,-100.00,SSW,194,0.0,1.0,41,-99.99,,,-99.99,0.000000,,2013-02-06 12:01:00,
2013-02-06 04:12:00,54.0,31.0,-100.00,NNW,348,1.0,4.0,42,-99.99,,,-99.99,0.000000,,2013-02-06 12:12:00,
2013-02-06 04:22:00,54.0,29.0,-100.00,WNW,294,2.0,5.0,39,-99.99,,,-99.99,0.000000,,2013-02-06 12:22:00,
2013-02-06 04:32:00,54.0,29.0,-100.00,WNW,294,2.0,5.0,39,-99.99,,,-99.99,0.000000,,2013-02-06 12:32:00,
2013-02-06 04:42:00,54.0,30.0,-100.00,WNW,303,1.0,5.0,39,-99.99,,,-99.99,0.000000,,2013-02-06 12:42:00,
2013-02-06 04:52:00,54.0,30.0,-100.00,NNE,15,0.0,2.0,40,-99.99,,,-99.99,0.000000,,2013-02-06 12:52:00,
2013-02-06 05:01:00,53.0,30.0,-100.00,North,352,0.0,2.0,41,-99.99,,,-99.99,0.000000,,2013-02-06 13:01:00,
2013-02-06 05:11:00,53.0,30.0,-100.00,North,7,2.0,3.0,41,-99.99,,,-99.99,0.000000,,2013-02-06 13:11:00,
2013-02-06 05:21:00,53.0,29.0,-100.00,North,351,2.0,4.0,40,-99.99,,,-99.99,0.000000,,2013-02-06 13:21:00,
2013-02-06 05:31:00,54.0,28.0,-100.00,NNW,332,2.0,4.0,37,-99.99,,,-99.99,0.000000,,2013-02-06 13:31:00,
2013-02-06 05:42:00,54.0,27.0,-100.00,NW,314,3.0,7.0,36,-99.99,,,-99.99,0.000000,,2013-02-06 13:42:00,
2013-02-06 05:52:00,54.0,27.0,-100.00,NNW,343,3.0,8.0,36,-99.99,,,-99.99,0.000000,,2013-02-06 13:52:00,
2013-02-06 06:01:00,54.0,27.0,-100.00,NNW,334,3.0,6.0,35,-99.99,,,-99.99,0.000000,,2013-02-06 14:01:00,
2013-02-06 06:11:00,54.0,26.0,-100.00,NNW,347,3.0,8.0,34,-99.99,,,-99.99,0.000000,,2013-02-06 14:11:00,
2013-02-06 06:21:00,54.0,26.0,-100.00,NW,326,4.0,8.0,33,-99.99,,,-99.99,0.000000,,2013-02-06 14:21:00,
2013-02-06 06:31:00,54.0,26.0,-100.00,NNW,346,4.0,8.0,34,-99.99,,,-99.99,0.000000,,2013-02-06 14:31:00,
2013-02-06 06:41:00,54.0,25.0,-100.00,NNE,14,2.0,5.0,33,-99.99,,,-99.99,0.000000,,2013-02-06 14:41:00,
2013-02-06 06:52:00,54.0,26.0,-100.00,NW,310,1.0,3.0,33,-99.99,,,-99.99,0.000000,,2013-02-06 14:52:00,
2013-02-06 07:01:00,54.0,25.0,-100.00,West,260,1.0,3.0,33,-99.99,,,-99.99,0.000000,,2013-02-06 15:01:00,
2013-02-06 07:11:00,53.0,26.0,-100.00,ENE,75,1.0,2.0,35,-99.99,,,-99.99,0.000000,,2013-02-06 15:11:00,
2013-02-06 07:21:00,52.0,27.0,-100.00,SW,221,1.0,4.0,37,-99.99,,,-99.99,0.000000,,2013-02-06 15:21:00,
2013-02-06 07:31:00,52.0,27.0,-100.00,South,175,1.0,3.0,39,-99.99,,,-99.99,3.000000,,2013-02-06 15:31:00,
2013-02-06 07:41:00,52.0,28.0,-100.00,NNE,28,0.0,1.0,39,-99.99,,,-99.99,6.000000,,2013-02-06 15:41:00,
2013-02-06 07:51:00,51.0,29.0,-100.00,South,172,1.0,2.0,42,-99.99,,,-99.99,11.000000,,2013-02-06 15:51:00,
2013-02-06 08:01:00,52.0,29.0,-100.00,SSE,157,1.0,3.0,41,-99.99,,,-99.99,15.000000,,2013-02-06 16:01:00,
2013-02-06 08:11:00,52.0,28.0,-100.00,South,183,1.0,3.0,40,-99.99,,,-99.99,18.000000,,2013-02-06 16:11:00,
2013-02-06 08:21:00,52.0,29.0,-100.00,SSE,166,1.0,2.0,40,-99.99,,,-99.99,18.000000,,2013-02-06 16:21:00,
2013-02-06 08:32:00,53.0,28.0,-100.00,East,86,0.0,2.0,38,-99.99,,,-99.99,21.000000,,2013-02-06 16:32:00,
2013-02-06 08:42:00,55.0,26.0,-100.00,North,355,2.0,4.0,33,-99.99,,,-99.99,24.000000,,2013-02-06 16:42:00,
2013-02-06 08:51:00,57.0,25.0,-100.00,NNW,344,5.0,12.0,29,-99.99,,,-99.99,25.000000,,2013-02-06 16:51:00,
2013-02-06 09:01:00,57.0,25.0,-100.00,NNW,344,5.0,12.0,29,-99.99,,,-99.99,25.000000,,2013-02-06 17:01:00,
2013-02-06 09:11:00,57.0,25.0,-100.00,NNW,343,5.0,11.0,29,-99.99,,,-99.99,26.000000,,2013-02-06 17:11:00,
2013-02-06 09:21:00,57.0,25.0,-100.00,NNW,346,4.0,9.0,29,-99.99,,,-99.99,28.000000,,2013-02-06 17:21:00,
2013-02-06 09:32:00,57.0,25.0,-100.00,NNW,335,3.0,7.0,29,-99.99,,,-99.99,29.000000,,2013-02-06 17:32:00,
2013-02-06 09:41:00,58.0,26.0,-100.00,NNW,347,4.0,7.0,29,-99.99,,,-99.99,31.000000,,2013-02-06 17:41:00,
2013-02-06 09:52:00,58.0,26.0,-100.00,NNW,333,3.0,8.0,29,-99.99,,,-99.99,77.000000,,2013-02-06 17:52:00,
2013-02-06 10:01:00,59.0,26.0,-100.00,WNW,296,2.0,5.0,28,-99.99,,,-99.99,441.000000,,2013-02-06 18:01:00,
2013-02-06 10:11:00,61.0,27.0,-100.00,WSW,245,2.0,6.0,27,-99.99,,,-99.99,471.000000,,2013-02-06 18:11:00,
2013-02-06 10:22:00,63.0,26.0,-100.00,WSW,252,2.0,6.0,25,-99.99,,,-99.99,497.000000,,2013-02-06 18:22:00,
2013-02-06 10:32:00,64.0,25.0,-100.00,WSW,256,2.0,6.0,23,-99.99,,,-99.99,522.000000,,2013-02-06 18:32:00,
2013-02-06 10:40:00,67.0,23.0,-100.00,North,2,5.0,10.0,19,-99.99,,,-99.99,651.000000,,2013-02-06 18:40:00,
2013-02-06 10:41:00,64.0,25.0,-100.00,NNE,29,2.0,7.0,23,-99.99,,,-99.99,548.000000,,2013-02-06 18:41:00,
2013-02-06 10:52:00,65.0,25.0,-100.00,WNW,289,1.0,4.0,22,-99.99,,,-99.99,569.000000,,2013-02-06 18:52:00,
2013-02-06 11:01:00,66.0,25.0,-100.00,South,183,1.0,4.0,21,-99.99,,,-99.99,588.000000,,2013-02-06 19:01:00,
2013-02-06 11:11:00,66.0,22.0,-100.00,NNE,22,4.0,10.0,19,-99.99,,,-99.99,616.000000,,2013-02-06 19:11:00,
2013-02-06 11:21:00,66.0,23.0,-100.00,NNE,19,4.0,8.0,19,-99.99,,,-99.99,633.000000,,2013-02-06 19:21:00,
2013-02-06 11:31:00,67.0,23.0,-100.00,North,2,5.0,10.0,19,-99.99,,,-99.99,651.000000,,2013-02-06 19:31:00,
2013-02-06 11:52:00,67.0,22.0,-100.00,North,1,4.0,12.0,18,-99.99,,,-99.99,108.000000,,2013-02-06 19:52:00,
2013-02-06 12:01:00,67.0,22.0,-100.00,North,349,6.0,12.0,18,-99.99,,,-99.99,703.000000,,2013-02-06 20:01:00,
2013-02-06 12:11:00,68.0,20.0,-100.00,NNW,331,4.0,9.0,16,-99.99,,,-99.99,718.000000,,2013-02-06 20:11:00,
2013-02-06 12:21:00,68.0,21.0,-100.00,NNE,21,4.0,9.0,16,-99.99,,,-99.99,721.000000,,2013-02-06 20:21:00,
2013-02-06 12:31:00,68.0,21.0,-100.00,NNE,21,4.0,9.0,16,-99.99,,,-99.99,721.000000,,2013-02-06 20:31:00,
2013-02-06 12:41:00,68.0,20.0,-100.00,NNE,28,6.0,13.0,16,-99.99,,,-99.99,721.000000,,2013-02-06 20:41:00,
2013-02-06 12:52:00,68.0,19.0,-100.00,North,10,5.0,12.0,15,-99.99,,,-99.99,720.000000,,2013-02-06 20:52:00,
2013-02-06 13:01:00,69.0,19.0,-100.00,NNE,14,5.0,11.0,15,-99.99,,,-99.99,712.000000,,2013-02-06 21:01:00,
2013-02-06 13:11:00,69.0,20.0,-100.00,North,352,6.0,12.0,15,-99.99,,,-99.99,704.000000,,2013-02-06 21:11:00,
2013-02-06 13:21:00,70.0,20.0,-100.00,NNW,340,5.0,11.0,15,-99.99,,,-99.99,698.000000,,2013-02-06 21:21:00,
2013-02-06 13:31:00,70.0,20.0,-100.00,NNW,340,5.0,11.0,15,-99.99,,,-99.99,698.000000,,2013-02-06 21:31:00,
2013-02-06 13:41:00,70.0,20.0,-100.00,North,352,6.0,14.0,15,-99.99,,,-99.99,686.000000,,2013-02-06 21:41:00,
2013-02-06 13:51:00,70.0,19.0,-100.00,North,8,5.0,13.0,14,-99.99,,,-99.99,676.000000,,2013-02-06 21:51:00,
2013-02-06 14:01:00,70.0,19.0,-100.00,North,357,6.0,14.0,14,-99.99,,,-99.99,662.000000,,2013-02-06 22:01:00,
2013-02-06 14:11:00,70.0,19.0,-100.00,North,354,6.0,13.0,14,-99.99,,,-99.99,644.000000,,2013-02-06 22:11:00,
2013-02-06 14:21:00,70.0,19.0,-100.00,NNW,339,6.0,14.0,14,-99.99,,,-99.99,627.000000,,2013-02-06 22:21:00,
2013-02-06 14:31:00,71.0,19.0,-100.00,North,5,5.0,11.0,14,-99.99,,,-99.99,606.000000,,2013-02-06 22:31:00,
2013-02-06 14:41:00,71.0,18.0,-100.00,North,0,6.0,14.0,13,-99.99,,,-99.99,584.000000,,2013-02-06 22:41:00,
2013-02-06 14:51:00,70.0,17.0,-100.00,NW,314,6.0,11.0,13,-99.99,,,-99.99,561.000000,,2013-02-06 22:51:00,
2013-02-06 15:01:00,70.0,17.0,-100.00,NNW,346,6.0,11.0,13,-99.99,,,-99.99,507.000000,,2013-02-06 23:01:00,
2013-02-06 15:11:00,70.0,17.0,-100.00,NNW,346,6.0,11.0,13,-99.99,,,-99.99,507.000000,,2013-02-06 23:11:00,
2013-02-06 15:21:00,71.0,18.0,-100.00,NNW,339,5.0,9.0,13,-99.99,,,-99.99,480.000000,,2013-02-06 23:21:00,
2013-02-06 15:31:00,71.0,16.0,-100.00,NNW,338,6.0,12.0,12,-99.99,,,-99.99,451.000000,,2013-02-06 23:31:00,
2013-02-06 15:41:00,71.0,16.0,-100.00,NNW,330,5.0,12.0,12,-99.99,,,-99.99,421.000000,,2013-02-06 23:41:00,
2013-02-06 15:52:00,71.0,16.0,-100.00,NNW,330,5.0,12.0,12,-99.99,,,-99.99,421.000000,,2013-02-06 23:52:00,
2013-02-06 16:01:00,71.0,18.0,-100.00,NNW,343,4.0,9.0,13,-99.99,,,-99.99,351.000000,,2013-02-07 00:01:00,
2013-02-06 16:11:00,71.0,18.0,-100.00,NNW,327,4.0,7.0,13,-99.99,,,-99.99,286.000000,,2013-02-07 00:11:00,
2013-02-06 16:21:00,71.0,18.0,-100.00,NNW,327,4.0,7.0,13,-99.99,,,-99.99,286.000000,,2013-02-07 00:21:00,
2013-02-06 16:31:00,71.0,18.0,-100.00,NNW,343,4.0,8.0,13,-99.99,,,-99.99,253.000000,,2013-02-07 00:31:00,
2013-02-06 16:41:00,70.0,17.0,-100.00,NNW,341,4.0,9.0,13,-99.99,,,-99.99,185.000000,,2013-02-07 00:41:00,
2013-02-06 16:51:00,70.0,17.0,-100.00,NNW,331,4.0,8.0,13,-99.99,,,-99.99,154.000000,,2013-02-07 00:51:00,
2013-02-06 17:01:00,70.0,17.0,-100.00,NNW,331,4.0,8.0,13,-99.99,,,-99.99,154.000000,,2013-02-07 01:01:00,
2013-02-06 17:11:00,69.0,18.0,-100.00,NNW,348,3.0,8.0,14,-99.99,,,-99.99,91.000000,,2013-02-07 01:11:00,
2013-02-06 17:21:00,69.0,18.0,-100.00,North,352,3.0,6.0,14,-99.99,,,-99.99,32.000000,,2013-02-07 01:21:00,
2013-02-06 17:31:00,68.0,17.0,-100.00,NNW,342,3.0,6.0,14,-99.99,,,-99.99,24.000000,,2013-02-07 01:31:00,
2013-02-06 17:41:00,68.0,17.0,-100.00,NNW,348,3.0,6.0,14,-99.99,,,-99.99,15.000000,,2013-02-07 01:41:00,
2013-02-06 17:50:00,66.0,16.0,-100.00,NNW,348,2.0,5.0,14,-99.99,,,-99.99,0.000000,,2013-02-07 01:50:00,
2013-02-06 17:52:00,67.0,17.0,-100.00,NNW,336,3.0,6.0,14,-99.99,,,-99.99,10.000000,,2013-02-07 01:52:00,
2013-02-06 18:01:00,67.0,16.0,-100.00,NNW,344,2.0,5.0,14,-99.99,,,-99.99,4.000000,,2013-02-07 02:01:00,
2013-02-06 18:11:00,67.0,16.0,-100.00,NNW,344,1.0,4.0,14,-99.99,,,-99.99,3.000000,,2013-02-07 02:11:00,
2013-02-06 18:21:00,66.0,16.0,-100.00,NNW,348,1.0,4.0,14,-99.99,,,-99.99,0.000000,,2013-02-07 02:21:00,
2013-02-06 18:31:00,66.0,16.0,-100.00,NNW,348,2.0,5.0,14,-99.99,,,-99.99,0.000000,,2013-02-07 02:31:00,
2013-02-06 18:41:00,66.0,16.0,-100.00,NNW,348,2.0,5.0,14,-99.99,,,-99.99,0.000000,,2013-02-07 02:41:00,
2013-02-06 19:02:00,65.0,15.0,-100.00,North,359,2.0,4.0,14,-99.99,,,-99.99,0.000000,,2013-02-07 03:02:00,
2013-02-06 19:11:00,65.0,15.0,-100.00,NNW,330,1.0,4.0,14,-99.99,,,-99.99,0.000000,,2013-02-07 03:11:00,
2013-02-06 19:21:00,65.0,16.0,-100.00,SSW,211,2.0,5.0,15,-99.99,,,-99.99,0.000000,,2013-02-07 03:21:00,
2013-02-06 19:31:00,65.0,16.0,-100.00,SW,214,1.0,2.0,15,-99.99,,,-99.99,0.000000,,2013-02-07 03:31:00,
2013-02-06 19:41:00,64.0,15.0,-100.00,SW,228,1.0,4.0,15,-99.99,,,-99.99,0.000000,,2013-02-07 03:41:00,
2013-02-06 19:51:00,64.0,14.0,-100.00,SW,222,1.0,3.0,14,-99.99,,,-99.99,0.000000,,2013-02-07 03:51:00,
2013-02-06 20:01:00,63.0,15.0,-100.00,SSW,202,1.0,3.0,15,-99.99,,,-99.99,0.000000,,2013-02-07 04:01:00,
2013-02-06 20:11:00,63.0,15.0,-100.00,SSW,202,1.0,3.0,15,-99.99,,,-99.99,0.000000,,2013-02-07 04:11:00,
2013-02-06 20:22:00,62.0,14.0,-100.00,North,357,2.0,4.0,15,-99.99,,,-99.99,0.000000,,2013-02-07 04:22:00,
2013-02-06 20:31:00,61.0,16.0,-100.00,North,3,1.0,4.0,17,-99.99,,,-99.99,0.000000,,2013-02-07 04:31:00,
2013-02-06 20:41:00,60.0,17.0,-100.00,North,351,0.0,2.0,18,-99.99,,,-99.99,0.000000,,2013-02-07 04:41:00,
2013-02-06 20:52:00,60.0,15.0,-100.00,NNW,330,0.0,2.0,17,-99.99,,,-99.99,0.000000,,2013-02-07 04:52:00,
2013-02-06 21:01:00,59.0,16.0,-100.00,NE,47,0.0,1.0,18,-99.99,,,-99.99,0.000000,,2013-02-07 05:01:00,
2013-02-06 21:11:00,58.0,19.0,-100.00,ENE,73,0.0,2.0,22,-99.99,,,-99.99,0.000000,,2013-02-07 05:11:00,
2013-02-06 21:21:00,58.0,12.0,-100.00,NNE,31,1.0,2.0,16,-99.99,,,-99.99,0.000000,,2013-02-07 05:21:00,
2013-02-06 21:32:00,58.0,14.0,-100.00,WSW,246,1.0,4.0,17,-99.99,,,-99.99,0.000000,,2013-02-07 05:32:00,
2013-02-06 21:42:00,59.0,11.0,-100.00,WNW,300,2.0,6.0,15,-99.99,,,-99.99,0.000000,,2013-02-07 05:42:00,
2013-02-06 21:52:00,60.0,9.0,-100.00,NW,312,2.0,6.0,13,-99.99,,,-99.99,0.000000,,2013-02-07 05:52:00,
2013-02-06 22:02:00,59.0,10.0,-100.00,North,350,1.0,4.0,14,-99.99,,,-99.99,0.000000,,2013-02-07 06:02:00,
2013-02-06 22:11:00,59.0,11.0,-100.00,ENE,59,1.0,3.0,15,-99.99,,,-99.99,0.000000,,2013-02-07 06:11:00,
2013-02-06 22:22:00,57.0,10.0,-100.00,South,187,0.0,1.0,15,-99.99,,,-99.99,0.000000,,2013-02-07 06:22:00,
2013-02-06 22:31:00,57.0,10.0,-100.00,South,187,0.0,1.0,15,-99.99,,,-99.99,0.000000,,2013-02-07 06:31:00,
2013-02-06 22:43:00,58.0,12.0,-100.00,SSW,199,0.0,2.0,16,-99.99,,,-99.99,0.000000,,2013-02-07 06:43:00,
2013-02-06 22:52:00,57.0,15.0,-100.00,NNE,20,0.0,3.0,19,-99.99,,,-99.99,0.000000,,2013-02-07 06:52:00,
2013-02-06 23:01:00,58.0,13.0,-100.00,North,359,1.0,3.0,17,-99.99,,,-99.99,0.000000,,2013-02-07 07:01:00,
2013-02-06 23:11:00,58.0,13.0,-100.00,North,359,1.0,3.0,17,-99.99,,,-99.99,0.000000,,2013-02-07 07:11:00,
2013-02-06 23:21:00,58.0,15.0,-100.00,North,9,1.0,3.0,18,-99.99,,,-99.99,0.000000,,2013-02-07 07:21:00,
2013-02-06 23:31:00,58.0,16.0,-100.00,North,6,2.0,4.0,19,-99.99,,,-99.99,0.000000,,2013-02-07 07:31:00,
2013-02-06 23:41:00,57.0,15.0,-100.00,NNE,20,1.0,3.0,19,-99.99,,,-99.99,0.000000,,2013-02-07 07:41:00,
2013-02-06 23:52:00,56.0,17.0,-100.00,SSE,167,0.0,2.0,21,-99.99,,,-99.99,0.000000,,2013-02-07 07:52:00,